WMT5QF LRCL-ESMS

Flight info

Callsign WMT5QF
Flight time 1h 52m
Altitude 34000
Route LARMU DCT KARIL DCT KENIN DCT LENOV DCT BABEN L617 ROE
Aircraft A321/M-SDE3FGHIRWY/LB1

Departure

Time 2026-04-18 10:23
Airport Avram Iancu Cluj International Airport (LRCL)

Arrival

Time 2026-04-18 12:16
Airport Malmö Sturup Airport (ESMS)
Time Latitude Longitude Altitude Speed Heading
2026-04-18 09:25 46.78541 23.69254 1043 ft 0 kts 252°
2026-04-18 10:12 46.78543 23.69263 1043 ft 4 kts 252°
2026-04-18 10:12 46.78550 23.69295 1043 ft 4 kts 255°
2026-04-18 10:12 46.78551 23.69326 1043 ft 4 kts 308°
2026-04-18 10:13 46.78532 23.69345 1043 ft 3 kts 341°
2026-04-18 10:13 46.78524 23.69349 1043 ft 0 kts 342°
2026-04-18 10:18 46.78525 23.69348 1043 ft 2 kts 342°
2026-04-18 10:18 46.78554 23.69334 1043 ft 7 kts 341°
2026-04-18 10:18 46.78603 23.69310 1043 ft 8 kts 341°
2026-04-18 10:19 46.78659 23.69283 1043 ft 9 kts 342°
2026-04-18 10:19 46.78721 23.69253 1043 ft 10 kts 342°
2026-04-18 10:19 46.78788 23.69221 1043 ft 10 kts 342°
2026-04-18 10:19 46.78859 23.69187 1043 ft 11 kts 342°
2026-04-18 10:20 46.78912 23.69190 1043 ft 8 kts 37°
2026-04-18 10:20 46.78939 23.69264 1043 ft 10 kts 70°
2026-04-18 10:20 46.78962 23.69365 1043 ft 11 kts 72°
2026-04-18 10:20 46.78988 23.69484 1043 ft 13 kts 75°
2026-04-18 10:21 46.79000 23.69585 1043 ft 4 kts 84°
2026-04-18 10:21 46.79007 23.69614 1043 ft 1 kts 50°
2026-04-18 10:21 46.79011 23.69613 1043 ft 0 kts
2026-04-18 10:21 46.79014 23.69608 1043 ft 1 kts 329°
2026-04-18 10:22 46.79014 23.69592 1043 ft 3 kts 262°
2026-04-18 10:22 46.79010 23.69577 1043 ft 0 kts 251°
2026-04-18 10:22 46.79008 23.69569 1043 ft 11 kts 251°
2026-04-18 10:23 46.78898 23.69082 1043 ft 90 kts 252°
2026-04-18 10:23 46.78630 23.67898 1045 ft 153 kts 252°
2026-04-18 10:23 46.78276 23.66282 1517 ft 170 kts 255°
2026-04-18 10:23 46.77905 23.64650 2373 ft 172 kts 253°
2026-04-18 10:24 46.77514 23.62948 3108 ft 185 kts 254°
2026-04-18 10:24 46.77115 23.61136 3578 ft 188 kts 255°
2026-04-18 10:24 46.76699 23.59286 3910 ft 200 kts 255°
2026-04-18 10:24 46.76237 23.57255 4045 ft 222 kts 256°
2026-04-18 10:25 46.75735 23.55026 4247 ft 242 kts 255°
2026-04-18 10:25 46.75190 23.52564 4456 ft 266 kts 255°
2026-04-18 10:25 46.74612 23.50011 5100 ft 271 kts 255°
2026-04-18 10:25 46.74002 23.47387 5813 ft 274 kts 254°
2026-04-18 10:26 46.73691 23.44696 6600 ft 269 kts 278°
2026-04-18 10:26 46.74374 23.42181 7154 ft 271 kts 312°
2026-04-18 10:26 46.75903 23.40658 7770 ft 270 kts 345°
2026-04-18 10:26 46.77737 23.40134 8497 ft 270 kts 349°
2026-04-18 10:27 46.79564 23.39435 9202 ft 273 kts 345°
2026-04-18 10:27 46.81388 23.38594 9954 ft 274 kts 343°
2026-04-18 10:27 46.83198 23.37699 10648 ft 275 kts 342°
2026-04-18 10:27 46.85024 23.36780 11008 ft 289 kts 343°
2026-04-18 10:28 46.87001 23.35796 11143 ft 310 kts 343°
2026-04-18 10:28 46.89116 23.34757 11293 ft 329 kts 343°
2026-04-18 10:28 46.91314 23.33683 11797 ft 335 kts 343°
2026-04-18 10:28 46.93538 23.32603 12455 ft 337 kts 343°
2026-04-18 10:29 46.95770 23.31522 13128 ft 338 kts 343°
2026-04-18 10:29 46.98009 23.30434 13790 ft 340 kts 343°
2026-04-18 10:29 47.00264 23.29336 14364 ft 343 kts 343°
2026-04-18 10:29 47.02516 23.28106 14932 ft 346 kts 340°
2026-04-18 10:30 47.04718 23.26749 15482 ft 349 kts 339°
2026-04-18 10:30 47.06945 23.25297 16045 ft 351 kts 338°
2026-04-18 10:30 47.09177 23.23815 16619 ft 354 kts 338°
2026-04-18 10:30 47.11432 23.22324 17181 ft 355 kts 338°
2026-04-18 10:31 47.13694 23.20846 17745 ft 358 kts 338°
2026-04-18 10:31 47.15991 23.19358 18291 ft 361 kts 338°
2026-04-18 10:31 47.18304 23.17872 18775 ft 364 kts 339°
2026-04-18 10:31 47.20639 23.16383 19262 ft 366 kts 339°
2026-04-18 10:32 47.22979 23.14898 19738 ft 368 kts 339°
2026-04-18 10:32 47.25263 23.13117 20220 ft 373 kts 329°
2026-04-18 10:32 47.27317 23.10730 20707 ft 378 kts 322°
2026-04-18 10:32 47.29319 23.08193 21195 ft 381 kts 322°
2026-04-18 10:33 47.31335 23.05648 21684 ft 383 kts 323°
2026-04-18 10:33 47.33365 23.03085 22154 ft 385 kts 323°
2026-04-18 10:33 47.35371 23.00547 22569 ft 387 kts 323°
2026-04-18 10:33 47.37427 22.97945 23011 ft 390 kts 323°
2026-04-18 10:34 47.39500 22.95319 23435 ft 392 kts 323°
2026-04-18 10:34 47.41577 22.92685 23846 ft 395 kts 323°
2026-04-18 10:34 47.43670 22.90032 24208 ft 396 kts 323°
2026-04-18 10:34 47.45763 22.87372 24575 ft 398 kts 323°
2026-04-18 10:35 47.47853 22.84710 24934 ft 400 kts 323°
2026-04-18 10:35 47.49966 22.82018 25291 ft 402 kts 323°
2026-04-18 10:35 47.52093 22.79305 25643 ft 404 kts 323°
2026-04-18 10:35 47.54223 22.76585 25997 ft 405 kts 323°
2026-04-18 10:36 47.56363 22.73850 26343 ft 407 kts 323°
2026-04-18 10:36 47.58521 22.71088 26641 ft 409 kts 323°
2026-04-18 10:36 47.60689 22.68309 26966 ft 411 kts 323°
2026-04-18 10:36 47.62829 22.65565 27265 ft 413 kts 323°
2026-04-18 10:37 47.65009 22.62772 27587 ft 415 kts 323°
2026-04-18 10:37 47.67209 22.59949 27902 ft 417 kts 323°
2026-04-18 10:37 47.69421 22.57106 28222 ft 418 kts 322°
2026-04-18 10:37 47.71606 22.54291 28537 ft 420 kts 322°
2026-04-18 10:38 47.73819 22.51434 28817 ft 422 kts 322°
2026-04-18 10:38 47.76049 22.48553 29120 ft 424 kts 322°
2026-04-18 10:38 47.78261 22.45696 29393 ft 425 kts 323°
2026-04-18 10:38 47.80652 22.43091 29658 ft 424 kts 332°
2026-04-18 10:39 47.83155 22.40858 29935 ft 426 kts 332°
2026-04-18 10:39 47.85711 22.38571 30226 ft 428 kts 332°
2026-04-18 10:39 47.88262 22.36280 30557 ft 427 kts 332°
2026-04-18 10:39 47.90777 22.34013 30913 ft 426 kts 331°
2026-04-18 10:40 47.93342 22.31700 31267 ft 425 kts 331°
2026-04-18 10:40 47.95845 22.29447 31608 ft 424 kts 331°
2026-04-18 10:40 47.98371 22.27173 31944 ft 423 kts 331°
2026-04-18 10:40 48.00890 22.24897 32300 ft 422 kts 331°
2026-04-18 10:41 48.03407 22.22614 32628 ft 421 kts 331°
2026-04-18 10:41 48.05879 22.20370 32945 ft 420 kts 331°
2026-04-18 10:41 48.08377 22.18105 33297 ft 418 kts 331°
2026-04-18 10:41 48.10875 22.15836 33630 ft 417 kts 331°
2026-04-18 10:42 48.13318 22.13617 33960 ft 416 kts 331°
2026-04-18 10:42 48.15806 22.11353 34125 ft 415 kts 331°
2026-04-18 10:42 48.18265 22.09113 34138 ft 413 kts 331°
2026-04-18 10:43 48.23148 22.04648 34135 ft 412 kts 331°
2026-04-18 10:43 48.28027 22.00187 34149 ft 411 kts 331°
2026-04-18 10:44 48.32120 21.96437 34123 ft 410 kts 331°
2026-04-18 10:44 48.36965 21.91979 34141 ft 409 kts 331°
2026-04-18 10:45 48.41807 21.87533 34145 ft 409 kts 331°
2026-04-18 10:45 48.46677 21.83045 34150 ft 409 kts 331°
2026-04-18 10:46 48.51507 21.78572 34154 ft 409 kts 331°
2026-04-18 10:46 48.56378 21.74058 34175 ft 409 kts 330°
2026-04-18 10:47 48.61240 21.69546 34165 ft 409 kts 331°
2026-04-18 10:47 48.66061 21.65059 34168 ft 409 kts 330°
2026-04-18 10:48 48.70912 21.60522 34166 ft 409 kts 330°
2026-04-18 10:48 48.75760 21.55987 34175 ft 409 kts 330°
2026-04-18 10:49 48.80583 21.51466 34173 ft 409 kts 330°
2026-04-18 10:49 48.85431 21.46915 34169 ft 408 kts 331°
2026-04-18 10:50 48.90237 21.42386 34182 ft 406 kts 331°
2026-04-18 10:50 48.95010 21.37875 34182 ft 405 kts 331°
2026-04-18 10:51 48.99795 21.33343 34185 ft 404 kts 331°
2026-04-18 10:51 49.04551 21.28833 34182 ft 403 kts 331°
2026-04-18 10:52 49.09301 21.24319 34183 ft 403 kts 331°
2026-04-18 10:52 49.14062 21.19791 34171 ft 402 kts 332°
2026-04-18 10:53 49.18804 21.15274 34194 ft 399 kts 332°
2026-04-18 10:53 49.23476 21.10804 34201 ft 397 kts 332°
2026-04-18 10:54 49.28157 21.06306 34202 ft 396 kts 332°
2026-04-18 10:54 49.32830 21.01808 34197 ft 395 kts 332°
2026-04-18 10:55 49.37463 20.97262 34194 ft 395 kts 332°
2026-04-18 10:55 49.42033 20.92688 34207 ft 393 kts 332°
2026-04-18 10:56 49.46622 20.88086 34210 ft 392 kts 332°
2026-04-18 10:56 49.51165 20.83537 34213 ft 390 kts 332°
2026-04-18 10:57 49.55725 20.78958 34212 ft 390 kts 332°
2026-04-18 10:57 49.60242 20.74397 34213 ft 389 kts 332°
2026-04-18 10:58 49.64770 20.69817 34198 ft 389 kts 332°
2026-04-18 10:58 49.69311 20.65233 34180 ft 389 kts 332°
2026-04-18 10:59 49.73830 20.60664 34208 ft 389 kts 332°
2026-04-18 10:59 49.78338 20.56081 34213 ft 389 kts 332°
2026-04-18 11:00 49.82865 20.51467 34218 ft 389 kts 332°
2026-04-18 11:00 49.87363 20.46876 34214 ft 389 kts 332°
2026-04-18 11:01 49.91896 20.42245 34211 ft 389 kts 331°
2026-04-18 11:01 49.96417 20.37612 34172 ft 389 kts 331°
2026-04-18 11:02 50.03175 20.30657 34206 ft 390 kts 331°
2026-04-18 11:02 50.07718 20.25971 34210 ft 390 kts 331°
2026-04-18 11:03 50.12232 20.21311 34215 ft 390 kts 331°
2026-04-18 11:03 50.16767 20.16612 34221 ft 390 kts 330°
2026-04-18 11:04 50.21274 20.11935 34184 ft 390 kts 330°
2026-04-18 11:04 50.25795 20.07231 34189 ft 391 kts 330°
2026-04-18 11:05 50.30339 20.02495 34207 ft 391 kts 330°
2026-04-18 11:05 50.34846 19.97788 34212 ft 391 kts 330°
2026-04-18 11:06 50.39388 19.93023 34213 ft 391 kts 330°
2026-04-18 11:06 50.43886 19.88290 34215 ft 391 kts 330°
2026-04-18 11:07 50.48391 19.83544 34176 ft 391 kts 329°
2026-04-18 11:07 50.52919 19.78771 34182 ft 392 kts 329°
2026-04-18 11:08 50.57446 19.73982 34192 ft 392 kts 329°
2026-04-18 11:08 50.61977 19.69177 34222 ft 393 kts 329°
2026-04-18 11:09 50.66518 19.64358 34218 ft 392 kts 329°
2026-04-18 11:09 50.71032 19.59551 34218 ft 392 kts 329°
2026-04-18 11:10 50.75556 19.54717 34189 ft 392 kts 329°
2026-04-18 11:10 50.80060 19.49895 34193 ft 393 kts 328°
2026-04-18 11:11 50.84615 19.45009 34201 ft 394 kts 328°
2026-04-18 11:11 50.89127 19.40159 34206 ft 394 kts 328°
2026-04-18 11:12 50.93682 19.35246 34227 ft 394 kts 328°
2026-04-18 11:12 50.98184 19.30376 34227 ft 394 kts 328°
2026-04-18 11:13 51.02732 19.25450 34226 ft 394 kts 328°
2026-04-18 11:13 51.07230 19.20573 34186 ft 394 kts 327°
2026-04-18 11:14 51.11780 19.15623 34191 ft 395 kts 327°
2026-04-18 11:14 51.16336 19.10642 34198 ft 396 kts 327°
2026-04-18 11:15 51.20860 19.05693 34222 ft 397 kts 327°
2026-04-18 11:15 51.25425 19.00687 34226 ft 397 kts 327°
2026-04-18 11:16 51.29974 18.95682 34234 ft 396 kts 327°
2026-04-18 11:16 51.34495 18.90691 34230 ft 396 kts 327°
2026-04-18 11:17 51.39039 18.85673 34225 ft 396 kts 327°
2026-04-18 11:17 51.43547 18.80696 34219 ft 396 kts 327°
2026-04-18 11:18 51.48089 18.75664 34225 ft 395 kts 327°
2026-04-18 11:18 51.52586 18.70650 34237 ft 395 kts 327°
2026-04-18 11:19 51.57114 18.65587 34238 ft 395 kts 327°
2026-04-18 11:19 51.61607 18.60562 34202 ft 394 kts 326°
2026-04-18 11:20 51.66112 18.55529 34203 ft 395 kts 326°
2026-04-18 11:20 51.70640 18.50455 34208 ft 396 kts 326°
2026-04-18 11:21 51.75144 18.45392 34205 ft 396 kts 326°
2026-04-18 11:21 51.79678 18.40258 34208 ft 396 kts 326°
2026-04-18 11:22 51.84177 18.35156 34230 ft 396 kts 326°
2026-04-18 11:22 51.88690 18.30029 34204 ft 396 kts 326°
2026-04-18 11:23 51.93183 18.24920 34204 ft 396 kts 326°
2026-04-18 11:23 51.97716 18.19757 34206 ft 397 kts 326°
2026-04-18 11:24 52.02212 18.14607 34202 ft 397 kts 326°
2026-04-18 11:24 52.06725 18.09422 34205 ft 397 kts 326°
2026-04-18 11:25 52.11214 18.04263 34213 ft 397 kts 326°
2026-04-18 11:25 52.15712 17.99084 34187 ft 397 kts 325°
2026-04-18 11:26 52.20251 17.93840 34189 ft 398 kts 325°
2026-04-18 11:26 52.24750 17.88640 34193 ft 399 kts 325°
2026-04-18 11:27 52.29272 17.83381 34208 ft 399 kts 325°
2026-04-18 11:27 52.33807 17.78092 34203 ft 400 kts 325°
2026-04-18 11:28 52.38320 17.72826 34216 ft 400 kts 325°
2026-04-18 11:28 52.42829 17.67558 34231 ft 400 kts 325°
2026-04-18 11:29 52.47361 17.62247 34213 ft 400 kts 324°
2026-04-18 11:29 52.51129 17.57814 34213 ft 400 kts 324°
2026-04-18 11:30 52.55674 17.52456 34211 ft 401 kts 324°
2026-04-18 11:30 52.60187 17.47124 34217 ft 401 kts 324°
2026-04-18 11:31 52.64733 17.41742 34220 ft 402 kts 324°
2026-04-18 11:31 52.69270 17.36358 34224 ft 402 kts 324°
2026-04-18 11:32 52.73807 17.30965 34217 ft 401 kts 324°
2026-04-18 11:32 52.78321 17.25576 34220 ft 402 kts 324°
2026-04-18 11:33 52.82853 17.20143 34220 ft 403 kts 324°
2026-04-18 11:33 52.87393 17.14691 34221 ft 403 kts 324°
2026-04-18 11:34 52.91915 17.09241 34224 ft 403 kts 324°
2026-04-18 11:34 52.96453 17.03762 34226 ft 403 kts 324°
2026-04-18 11:35 53.00983 16.98285 34226 ft 403 kts 324°
2026-04-18 11:35 53.05523 16.92786 34220 ft 403 kts 323°
2026-04-18 11:36 53.10033 16.87297 34225 ft 404 kts 323°
2026-04-18 11:36 53.14579 16.81758 34227 ft 404 kts 323°
2026-04-18 11:37 53.19109 16.76229 34222 ft 404 kts 323°
2026-04-18 11:37 53.23645 16.70658 34222 ft 404 kts 323°
2026-04-18 11:38 53.28151 16.65107 34225 ft 404 kts 323°
2026-04-18 11:38 53.32672 16.59544 34203 ft 404 kts 323°
2026-04-18 11:39 53.37214 16.53928 34217 ft 405 kts 322°
2026-04-18 11:39 53.41728 16.48328 34218 ft 405 kts 322°
2026-04-18 11:40 53.46263 16.42686 34218 ft 404 kts 322°
2026-04-18 11:40 53.50748 16.37086 34218 ft 404 kts 322°
2026-04-18 11:41 53.55285 16.31420 34218 ft 404 kts 322°
2026-04-18 11:41 53.59806 16.25765 34207 ft 404 kts 322°
2026-04-18 11:42 53.64308 16.20116 34201 ft 405 kts 322°
2026-04-18 11:42 53.68835 16.14418 34218 ft 406 kts 322°
2026-04-18 11:43 53.73330 16.08732 34217 ft 405 kts 321°
2026-04-18 11:43 53.77850 16.02993 34220 ft 405 kts 321°
2026-04-18 11:44 53.82358 15.97263 34219 ft 405 kts 321°
2026-04-18 11:44 53.86864 15.91541 34218 ft 405 kts 321°
2026-04-18 11:45 53.91366 15.85783 34206 ft 406 kts 321°
2026-04-18 11:45 53.95884 15.79980 34203 ft 407 kts 321°
2026-04-18 11:46 54.00384 15.74208 34213 ft 407 kts 321°
2026-04-18 11:46 54.04918 15.68395 34213 ft 407 kts 321°
2026-04-18 11:47 54.09420 15.62599 34220 ft 407 kts 321°
2026-04-18 11:47 54.13938 15.56733 34225 ft 407 kts 320°
2026-04-18 11:48 54.18447 15.50848 34229 ft 407 kts 320°
2026-04-18 11:48 54.22931 15.45006 34055 ft 404 kts 320°
2026-04-18 11:49 54.25126 15.42145 33783 ft 397 kts 320°
2026-04-18 11:49 54.27317 15.39285 33508 ft 394 kts 320°
2026-04-18 11:49 54.29489 15.36444 33269 ft 392 kts 320°
2026-04-18 11:49 54.31631 15.33637 32998 ft 390 kts 320°
2026-04-18 11:50 54.33791 15.30799 32728 ft 389 kts 320°
2026-04-18 11:50 54.35951 15.27955 32463 ft 388 kts 320°
2026-04-18 11:50 54.38139 15.25267 32202 ft 389 kts 326°
2026-04-18 11:50 54.40530 15.23067 31950 ft 390 kts 333°
2026-04-18 11:51 54.43032 15.21331 31692 ft 391 kts 336°
2026-04-18 11:51 54.45569 15.19622 31439 ft 390 kts 336°
2026-04-18 11:51 54.48098 15.17908 31186 ft 390 kts 335°
2026-04-18 11:51 54.50596 15.16207 30924 ft 390 kts 335°
2026-04-18 11:52 54.53130 15.14475 30690 ft 391 kts 335°
2026-04-18 11:52 54.55660 15.12738 30453 ft 390 kts 335°
2026-04-18 11:52 54.58194 15.11000 30201 ft 390 kts 335°
2026-04-18 11:52 54.60712 15.09279 29911 ft 389 kts 335°
2026-04-18 11:53 54.63194 15.07581 29633 ft 387 kts 335°
2026-04-18 11:53 54.65699 15.05863 29350 ft 386 kts 335°
2026-04-18 11:53 54.68174 15.04164 29014 ft 380 kts 335°
2026-04-18 11:53 54.70646 15.02470 28577 ft 377 kts 335°
2026-04-18 11:54 54.73053 15.00815 28171 ft 374 kts 335°
2026-04-18 11:54 54.75473 14.99150 27771 ft 371 kts 335°
2026-04-18 11:54 54.77870 14.97496 27371 ft 368 kts 335°
2026-04-18 11:54 54.80219 14.95869 27001 ft 365 kts 335°
2026-04-18 11:55 54.82574 14.94237 26619 ft 362 kts 335°
2026-04-18 11:55 54.84899 14.92557 26238 ft 359 kts 334°
2026-04-18 11:55 54.87186 14.90824 25868 ft 355 kts 333°
2026-04-18 11:55 54.89410 14.89098 25486 ft 353 kts 333°
2026-04-18 11:56 54.91650 14.87351 25095 ft 350 kts 333°
2026-04-18 11:56 54.93877 14.85624 24703 ft 347 kts 333°
2026-04-18 11:56 54.96058 14.83940 24342 ft 345 kts 333°
2026-04-18 11:56 54.98248 14.82256 23949 ft 343 kts 333°
2026-04-18 11:57 55.00436 14.80571 23520 ft 341 kts 333°
2026-04-18 11:57 55.02604 14.78905 23119 ft 337 kts 333°
2026-04-18 11:57 55.04722 14.77270 22736 ft 333 kts 331°
2026-04-18 11:57 55.06690 14.75226 22352 ft 327 kts 321°
2026-04-18 11:58 55.08387 14.72629 21970 ft 321 kts 311°
2026-04-18 11:58 55.09937 14.69820 21594 ft 318 kts 312°
2026-04-18 11:58 55.11451 14.67088 21227 ft 316 kts 312°
2026-04-18 11:58 55.12972 14.64346 20860 ft 313 kts 312°
2026-04-18 11:59 55.14481 14.61625 20488 ft 310 kts 312°
2026-04-18 11:59 55.15978 14.58923 20123 ft 309 kts 312°
2026-04-18 11:59 55.17470 14.56226 19768 ft 307 kts 312°
2026-04-18 11:59 55.18954 14.53543 19410 ft 305 kts 312°
2026-04-18 12:00 55.20424 14.50882 19052 ft 304 kts 312°
2026-04-18 12:00 55.21892 14.48220 18695 ft 302 kts 312°
2026-04-18 12:00 55.23356 14.45565 18327 ft 301 kts 311°
2026-04-18 12:00 55.24797 14.42951 17955 ft 301 kts 312°
2026-04-18 12:01 55.27697 14.37683 17250 ft 298 kts 312°
2026-04-18 12:01 55.29125 14.35085 16902 ft 297 kts 312°
2026-04-18 12:01 55.30561 14.32466 16551 ft 296 kts 312°
2026-04-18 12:02 55.31986 14.29860 16206 ft 294 kts 312°
2026-04-18 12:02 55.33408 14.27260 15852 ft 293 kts 312°
2026-04-18 12:02 55.34804 14.24704 15519 ft 292 kts 312°
2026-04-18 12:02 55.36203 14.22135 15171 ft 291 kts 312°
2026-04-18 12:03 55.37605 14.19556 14844 ft 290 kts 312°
2026-04-18 12:03 55.38997 14.16997 14507 ft 289 kts 312°
2026-04-18 12:03 55.40386 14.14445 14165 ft 288 kts 312°
2026-04-18 12:03 55.41753 14.11928 13824 ft 286 kts 312°
2026-04-18 12:04 55.43122 14.09399 13483 ft 285 kts 312°
2026-04-18 12:04 55.44496 14.06858 13153 ft 283 kts 312°
2026-04-18 12:04 55.45834 14.04387 12834 ft 281 kts 312°
2026-04-18 12:04 55.47180 14.01899 12508 ft 280 kts 312°
2026-04-18 12:05 55.48526 13.99408 12184 ft 279 kts 312°
2026-04-18 12:05 55.49865 13.96928 11860 ft 277 kts 312°
2026-04-18 12:05 55.51192 13.94470 11541 ft 276 kts 312°
2026-04-18 12:05 55.52511 13.92022 11218 ft 274 kts 311°
2026-04-18 12:06 55.53798 13.89630 10899 ft 271 kts 311°
2026-04-18 12:06 55.55095 13.87213 10598 ft 269 kts 312°
2026-04-18 12:06 55.56380 13.84820 10284 ft 268 kts 312°
2026-04-18 12:06 55.57655 13.82441 9957 ft 266 kts 311°
2026-04-18 12:07 55.58924 13.80071 9634 ft 264 kts 312°
2026-04-18 12:07 55.60182 13.77718 9311 ft 262 kts 311°
2026-04-18 12:07 55.61430 13.75383 9003 ft 259 kts 311°
2026-04-18 12:07 55.62656 13.73090 8699 ft 257 kts 312°
2026-04-18 12:08 55.63885 13.70792 8387 ft 255 kts 312°
2026-04-18 12:08 55.65088 13.68542 8104 ft 253 kts 313°
2026-04-18 12:08 55.66293 13.66278 7795 ft 251 kts 313°
2026-04-18 12:08 55.67494 13.64019 7499 ft 250 kts 313°
2026-04-18 12:09 55.68687 13.61776 7198 ft 249 kts 313°
2026-04-18 12:09 55.69857 13.59569 6894 ft 248 kts 313°
2026-04-18 12:09 55.71046 13.57321 6603 ft 248 kts 313°
2026-04-18 12:09 55.72218 13.55108 6422 ft 249 kts 312°
2026-04-18 12:10 55.73417 13.52848 6328 ft 252 kts 312°
2026-04-18 12:10 55.74584 13.50521 6222 ft 251 kts 304°
2026-04-18 12:10 55.75394 13.47788 5988 ft 253 kts 288°
2026-04-18 12:10 55.75717 13.44677 5549 ft 254 kts 268°
2026-04-18 12:11 55.75492 13.41671 5308 ft 245 kts 253°
2026-04-18 12:11 55.74787 13.38898 4853 ft 247 kts 235°
2026-04-18 12:11 55.73633 13.36569 4157 ft 258 kts 217°
2026-04-18 12:11 55.72088 13.34980 3682 ft 253 kts 198°
2026-04-18 12:12 55.70427 13.34331 3367 ft 241 kts 182°
2026-04-18 12:12 55.68788 13.34482 3053 ft 229 kts 171°
2026-04-18 12:12 55.67249 13.34804 2776 ft 218 kts 172°
2026-04-18 12:12 55.65766 13.35113 2466 ft 210 kts 171°
2026-04-18 12:13 55.64344 13.35407 2188 ft 205 kts 172°
2026-04-18 12:13 55.63396 13.35604 2002 ft 203 kts 172°
2026-04-18 12:13 55.61657 13.35962 1682 ft 173 kts 172°
2026-04-18 12:13 55.60875 13.36123 1496 ft 161 kts 172°
2026-04-18 12:14 55.59832 13.36338 1293 ft 146 kts 171°
2026-04-18 12:14 55.58849 13.36544 1089 ft 140 kts 171°
2026-04-18 12:14 55.57877 13.36749 842 ft 142 kts 173°
2026-04-18 12:14 55.56899 13.36948 660 ft 140 kts 171°
2026-04-18 12:15 55.55940 13.37150 503 ft 139 kts 170°
2026-04-18 12:15 55.54984 13.37337 301 ft 137 kts 170°
2026-04-18 12:15 55.54076 13.37531 242 ft 117 kts 173°
2026-04-18 12:15 55.53438 13.37664 238 ft 72 kts 173°
2026-04-18 12:16 55.53085 13.37733 241 ft 26 kts 173°
2026-04-18 12:16 55.53004 13.37747 240 ft 4 kts 179°
2026-04-18 12:16 55.52981 13.37709 240 ft 5 kts 250°
2026-04-18 12:16 55.52973 13.37600 236 ft 11 kts 263°
2026-04-18 12:17 55.52974 13.37487 234 ft 8 kts 289°
2026-04-18 12:17 55.53010 13.37449 232 ft 7 kts 353°
2026-04-18 12:17 55.53060 13.37443 232 ft 8 kts 355°
2026-04-18 12:17 55.53119 13.37432 232 ft 9 kts 353°
2026-04-18 12:18 55.53189 13.37418 232 ft 12 kts 353°
2026-04-18 12:18 55.53276 13.37399 231 ft 13 kts 353°
2026-04-18 12:18 55.53372 13.37380 231 ft 14 kts 353°
2026-04-18 12:18 55.53475 13.37359 232 ft 16 kts 353°
2026-04-18 12:19 55.53585 13.37336 233 ft 16 kts 353°
2026-04-18 12:19 55.53702 13.37313 231 ft 17 kts 353°
2026-04-18 12:19 55.53825 13.37287 231 ft 18 kts 353°
2026-04-18 12:19 55.53916 13.37268 232 ft 10 kts 353°
2026-04-18 12:20 55.53962 13.37199 231 ft 10 kts 282°
2026-04-18 12:20 55.53957 13.37067 231 ft 11 kts 264°
2026-04-18 12:20 55.53948 13.36923 231 ft 12 kts 263°
2026-04-18 12:20 55.53939 13.36791 231 ft 8 kts 264°
2026-04-18 12:21 55.53936 13.36743 231 ft 3 kts 264°
2026-04-18 12:21 55.53941 13.36722 231 ft 2 kts 318°
2026-04-18 12:21 55.53955 13.36709 231 ft 2 kts 337°
2026-04-18 12:21 55.53972 13.36703 231 ft 3 kts 352°
2026-04-18 12:22 55.53994 13.36698 231 ft 2 kts 352°
2026-04-18 12:22 55.54003 13.36696 231 ft 0 kts 352°